• In Russia
  • List of Countries
  • For 7 days
  • Water Temperature
  • Satellite Maps
  • Weather Map
  • Weather Widgets
  • user-avatar
    Login

    Hourly Weather Gold Coast

    Today, 16 January, Monday

    Time Temperature Precipitation Wind Pressure Humidity
    00:00 +25°C° 0.2 mm 2 mps 756 mmHg 94%
    01:00 +25°C° 0.2 mm 2 mps 756 mmHg 94%
    02:00 +25°C° 0 mm 2 mps 756 mmHg 94%
    03:00 +25°C° 0 mm 2 mps 756 mmHg 94%
    04:00 +24°C° 0 mm 3 mps 756 mmHg 94%
    05:00 +25°C° 0 mm 3 mps 756 mmHg 92%
    06:00 +25°C° 0 mm 3 mps 757 mmHg 91%
    07:00 +26°C° 0 mm 3 mps 757 mmHg 89%
    08:00 +27°C° 0 mm 2 mps 757 mmHg 81%
    09:00 +29°C° 0 mm 2 mps 757 mmHg 72%
    10:00 +31°C° 0 mm 2 mps 757 mmHg 64%
    11:00 +31°C° 0 mm 2 mps 757 mmHg 63%
    12:00 +33°C° 0 mm 3 mps 757 mmHg 61%
    13:00 +33°C° 0 mm 3 mps 757 mmHg 59%
    14:00 +33°C° 0.1 mm 4 mps 757 mmHg 62%
    15:00 +32°C° 0.1 mm 4 mps 756 mmHg 66%
    16:00 +30°C° 0 mm 4 mps 757 mmHg 71%
    17:00 +29°C° 0.1 mm 4 mps 757 mmHg 77%
    18:00 +28°C° 0.1 mm 3 mps 757 mmHg 83%
    19:00 +26°C° 0.1 mm 3 mps 758 mmHg 89%
    20:00 +26°C° 0 mm 3 mps 758 mmHg 90%
    21:00 +25°C° 0 mm 3 mps 758 mmHg 92%
    22:00 +25°C° 0 mm 2 mps 758 mmHg 93%
    23:00 +24°C° 0 mm 2 mps 758 mmHg 94%

    Tomorrow, 17 January, Tuesday

    Time Temperature Precipitation Wind Pressure Humidity
    00:00 +24°C° 0 mm 2 mps 758 mmHg 94%
    01:00 +23°C° 0 mm 1 mps 758 mmHg 95%
    02:00 +23°C° 0 mm 1 mps 758 mmHg 95%
    03:00 +23°C° 0 mm 1 mps 758 mmHg 95%
    04:00 +22°C° 0 mm 1 mps 758 mmHg 95%
    05:00 +24°C° 0 mm 1 mps 758 mmHg 91%
    06:00 +25°C° 0 mm 1 mps 758 mmHg 86%
    07:00 +27°C° 0 mm 1 mps 759 mmHg 82%
    08:00 +28°C° 0 mm 1 mps 759 mmHg 74%
    09:00 +30°C° 0 mm 2 mps 758 mmHg 65%
    10:00 +32°C° 0 mm 2 mps 758 mmHg 57%
    11:00 +33°C° 0 mm 3 mps 758 mmHg 55%
    12:00 +34°C° 0 mm 3 mps 758 mmHg 53%
    13:00 +35°C° 0 mm 4 mps 757 mmHg 51%
    14:00 +34°C° 0 mm 4 mps 757 mmHg 55%
    15:00 +34°C° 0 mm 5 mps 756 mmHg 59%
    16:00 +33°C° 0 mm 5 mps 756 mmHg 63%
    17:00 +30°C° 0 mm 5 mps 756 mmHg 70%
    18:00 +29°C° 0 mm 5 mps 757 mmHg 77%
    19:00 +27°C° 0 mm 4 mps 757 mmHg 84%
    20:00 +26°C° 0 mm 4 mps 757 mmHg 86%
    21:00 +25°C° 0 mm 4 mps 758 mmHg 89%
    22:00 +25°C° 0 mm 4 mps 758 mmHg 92%
    23:00 +23°C° 0 mm 4 mps 757 mmHg 92%

    Day after tomorrow, 18 January, Wednesday

    Time Temperature Precipitation Wind Pressure Humidity
    00:00 +23°C° 0 mm 4 mps 757 mmHg 93%
    01:00 +23°C° 0 mm 4 mps 757 mmHg 93%
    02:00 +23°C° 0 mm 4 mps 756 mmHg 93%
    03:00 +23°C° 0 mm 4 mps 756 mmHg 92%
    04:00 +23°C° 0 mm 4 mps 756 mmHg 91%
    05:00 +23°C° 0 mm 4 mps 756 mmHg 87%
    06:00 +25°C° 0 mm 4 mps 757 mmHg 82%
    07:00 +26°C° 0 mm 5 mps 757 mmHg 78%
    08:00 +28°C° 0 mm 5 mps 757 mmHg 69%
    09:00 +30°C° 0 mm 5 mps 756 mmHg 61%
    10:00 +33°C° 0 mm 5 mps 756 mmHg 52%
    11:00 +35°C° 0 mm 5 mps 755 mmHg 47%
    12:00 +37°C° 0 mm 5 mps 755 mmHg 42%
    13:00 +40°C° 0 mm 6 mps 754 mmHg 36%
    14:00 +39°C° 0 mm 6 mps 753 mmHg 41%
    15:00 +38°C° 0 mm 6 mps 753 mmHg 45%
    16:00 +36°C° 0 mm 7 mps 752 mmHg 49%
    17:00 +34°C° 0 mm 7 mps 752 mmHg 57%
    18:00 +32°C° 0 mm 6 mps 753 mmHg 65%
    19:00 +29°C° 0 mm 6 mps 753 mmHg 73%
    20:00 +28°C° 0 mm 6 mps 753 mmHg 77%
    21:00 +27°C° 0 mm 6 mps 753 mmHg 81%
    22:00 +27°C° 0 mm 5 mps 753 mmHg 85%
    23:00 +27°C° 0 mm 5 mps 753 mmHg 84%

    19 January, Thursday

    Time Temperature Precipitation Wind Pressure Humidity
    00:00 +27°C° 0 mm 5 mps 753 mmHg 83%
    01:00 +27°C° 0 mm 5 mps 752 mmHg 82%
    02:00 +27°C° 0 mm 5 mps 752 mmHg 79%
    03:00 +27°C° 0 mm 5 mps 752 mmHg 75%
    04:00 +28°C° 0 mm 5 mps 752 mmHg 72%
    05:00 +28°C° 0 mm 5 mps 753 mmHg 74%
    06:00 +28°C° 0 mm 4 mps 753 mmHg 76%
    07:00 +28°C° 0 mm 4 mps 754 mmHg 78%
    08:00 +29°C° 0 mm 5 mps 754 mmHg 73%
    09:00 +30°C° 0 mm 5 mps 754 mmHg 69%
    10:00 +33°C° 0 mm 6 mps 754 mmHg 65%
    11:00 +34°C° 0 mm 6 mps 754 mmHg 61%
    12:00 +35°C° 0 mm 6 mps 753 mmHg 58%
    13:00 +36°C° 0 mm 6 mps 753 mmHg 55%
    14:00 +35°C° 0.3 mm 6 mps 753 mmHg 58%
    15:00 +34°C° 0.3 mm 7 mps 752 mmHg 62%
    16:00 +33°C° 0.3 mm 7 mps 752 mmHg 66%
    17:00 +30°C° 0.5 mm 7 mps 752 mmHg 72%
    18:00 +28°C° 0.5 mm 7 mps 753 mmHg 79%
    19:00 +26°C° 0.5 mm 7 mps 753 mmHg 85%
    20:00 +26°C° 0.5 mm 6 mps 754 mmHg 87%
    21:00 +26°C° 0.5 mm 6 mps 754 mmHg 88%
    22:00 +24°C° 0.5 mm 6 mps 754 mmHg 90%
    23:00 +25°C° 0.1 mm 5 mps 754 mmHg 91%

    20 January, Friday

    Time Temperature Precipitation Wind Pressure Humidity
    00:00 +25°C° 0.1 mm 5 mps 754 mmHg 91%
    01:00 +25°C° 0.1 mm 4 mps 753 mmHg 92%
    02:00 +25°C° 0.1 mm 4 mps 753 mmHg 93%
    03:00 +24°C° 0.1 mm 3 mps 753 mmHg 94%
    04:00 +24°C° 0.1 mm 3 mps 753 mmHg 94%
    05:00 +25°C° 0 mm 2 mps 753 mmHg 91%
    06:00 +26°C° 0 mm 2 mps 754 mmHg 87%
    07:00 +27°C° 0 mm 1 mps 754 mmHg 84%
    08:00 +28°C° 0 mm 1 mps 754 mmHg 76%
    09:00 +30°C° 0 mm 1 mps 754 mmHg 68%
    10:00 +32°C° 0 mm 2 mps 754 mmHg 61%
    11:00 +32°C° 0 mm 2 mps 753 mmHg 59%
    12:00 +34°C° 0 mm 3 mps 752 mmHg 58%
    13:00 +35°C° 0 mm 4 mps 751 mmHg 56%
    14:00 +35°C° 0.1 mm 5 mps 751 mmHg 57%
    15:00 +35°C° 0.1 mm 5 mps 750 mmHg 57%
    16:00 +36°C° 0.1 mm 5 mps 750 mmHg 57%
    17:00 +34°C° 0.8 mm 6 mps 750 mmHg 66%
    18:00 +32°C° 0.8 mm 6 mps 750 mmHg 74%
    19:00 +29°C° 0.8 mm 6 mps 750 mmHg 82%
    20:00 +29°C° 0 mm 6 mps 750 mmHg 84%
    21:00 +28°C° 0 mm 6 mps 750 mmHg 86%
    22:00 +28°C° 0 mm 6 mps 750 mmHg 87%
    23:00 +27°C° 0.1 mm 6 mps 750 mmHg 87%

    21 January, Saturday

    Time Temperature Precipitation Wind Pressure Humidity
    00:00 +27°C° 0.1 mm 5 mps 750 mmHg 88%
    01:00 +27°C° 0.1 mm 5 mps 749 mmHg 88%
    02:00 +27°C° 0 mm 5 mps 749 mmHg 86%
    03:00 +27°C° 0 mm 6 mps 749 mmHg 85%
    04:00 +27°C° 0 mm 6 mps 749 mmHg 84%
    05:00 +28°C° 0.1 mm 5 mps 749 mmHg 80%
    06:00 +29°C° 0.1 mm 5 mps 750 mmHg 77%
    07:00 +29°C° 0.1 mm 5 mps 750 mmHg 74%
    08:00 +32°C° 0 mm 5 mps 751 mmHg 67%
    09:00 +34°C° 0 mm 5 mps 751 mmHg 60%
    10:00 +36°C° 0 mm 5 mps 751 mmHg 54%
    11:00 +35°C° 0.3 mm 6 mps 751 mmHg 58%
    12:00 +34°C° 0.3 mm 8 mps 751 mmHg 62%
    13:00 +33°C° 0.3 mm 9 mps 751 mmHg 66%
    14:00 +32°C° 0.1 mm 9 mps 751 mmHg 68%
    15:00 +32°C° 0.1 mm 9 mps 752 mmHg 69%
    16:00 +31°C° 0.1 mm 9 mps 752 mmHg 71%
    17:00 +29°C° 0.1 mm 8 mps 753 mmHg 73%
    18:00 +28°C° 0.1 mm 8 mps 753 mmHg 76%
    19:00 +27°C° 0.1 mm 8 mps 754 mmHg 78%
    20:00 +26°C° 0 mm 8 mps 754 mmHg 78%
    21:00 +26°C° 0 mm 8 mps 755 mmHg 78%
    22:00 +26°C° 0 mm 7 mps 755 mmHg 79%
    23:00 +26°C° 0 mm 7 mps 755 mmHg 78%
    Show more